Location: Newark
(40.7360°N, 74.1730°W)
Time: 15:41:02
(UTC-04:00)

ISS - All Passes

Search period start: 27 May 2018 00:00
Search period end: 06 June 2018 00:00
Orbit: 402 x 407 km, 51.6° (Epoch: 27 May)

Date Brightness Start Highest point End Pass type
(mag) Time Alt. Az. Time Alt. Az. Time Alt. Az.
27 May - 00:35:18 10° NNW 00:37:56 22° NNE 00:40:35 10° ENE visible
27 May - 02:11:26 10° WNW 02:14:40 63° SW 02:17:53 10° SE visible
27 May - 18:50:57 10° SSW 18:54:05 44° SE 18:57:13 10° ENE daylight
27 May - 20:27:51 10° W 20:30:40 26° NNW 20:33:30 10° NE daylight
27 May - 22:06:29 10° NNW 22:08:00 13° N 22:09:33 10° NNE visible
27 May - 23:43:18 10° NNW 23:45:31 17° NNE 23:47:44 10° ENE visible
28 May - 01:19:14 10° NW 01:22:29 67° NE 01:25:44 10° ESE visible
28 May - 02:56:59 10° W 02:58:34 13° SW 03:00:10 10° SSW night (unlit)
28 May - 17:59:21 10° S 18:02:00 23° SE 18:04:39 10° E daylight
28 May - 19:35:13 10° WSW 19:38:20 40° NNW 19:41:28 10° NE daylight
28 May - 21:13:38 10° NW 21:15:29 14° N 21:17:21 10° NNE visible
28 May - 22:51:13 10° NNW 22:53:01 14° N 22:54:50 10° NE visible
29 May - 00:27:07 10° NW 00:30:13 38° NNE 00:33:17 10° E visible
29 May - 02:03:50 10° WNW 02:06:34 25° SW 02:09:17 10° S night (unlit)
29 May - 17:08:40 10° SSE 17:10:00 12° SE 17:11:21 10° ESE daylight
29 May - 18:42:48 10° WSW 18:46:03 73° NW 18:49:20 10° NE daylight
29 May - 20:20:43 10° WNW 20:23:00 17° NNW 20:25:16 10° NNE daylight
29 May - 21:58:59 10° NNW 22:00:29 13° N 22:02:00 10° NNE visible
29 May - 23:35:05 10° NW 23:37:51 25° NNE 23:40:37 10° E visible
30 May - 01:11:19 10° WNW 01:14:28 48° SW 01:17:37 10° SE visible
30 May - 17:50:38 10° SW 17:53:51 57° SE 17:57:05 10° ENE daylight
30 May - 19:27:50 10° WNW 19:30:32 23° NNW 19:33:14 10° NNE daylight
30 May - 21:06:27 10° NNW 21:07:55 12° N 21:09:25 10° NNE visible
30 May - 22:43:01 10° NNW 22:45:24 18° NNE 22:47:46 10° ENE visible
31 May - 00:19:00 10° NW 00:22:16 84° NNE 00:25:32 10° SE visible
31 May - 01:57:53 10° WSW 01:58:17 10° SW 01:58:40 10° SW night (unlit)
31 May - 16:58:50 10° SSW 17:01:43 29° SE 17:04:35 10° ENE daylight
31 May - 18:35:06 10° W 18:38:08 34° NNW 18:41:10 10° NE daylight
31 May - 20:13:38 10° NW 20:15:21 13° N 20:17:05 10° NNE daylight
31 May - 21:50:56 10° NNW 21:52:53 15° NNE 21:54:50 10° NE visible
31 May - 23:26:50 10° NW 23:30:00 45° NNE 23:33:09 10° ESE visible
01 Jun - 01:03:48 10° W 01:06:16 20° SW 01:08:42 10° S visible
01 Jun - 16:07:39 10° SSE 16:09:39 15° SE 16:11:38 10° E daylight
01 Jun - 17:42:34 10° WSW 17:45:47 58° NW 17:49:02 10° NE daylight
01 Jun - 19:20:40 10° NW 19:22:49 16° NNW 19:24:56 10° NNE daylight
01 Jun - 20:58:43 10° NNW 21:00:19 13° N 21:01:55 10° NE visible
01 Jun - 22:34:43 10° NW 22:37:37 28° NNE 22:40:31 10° E visible
02 Jun - 00:11:05 10° WNW 00:14:09 37° SW 00:17:12 10° SSE visible
02 Jun - 16:50:16 10° SW 16:53:31 74° SE 16:56:48 10° ENE daylight
02 Jun - 18:27:44 10° WNW 18:30:18 21° NNW 18:32:51 10° NNE daylight
02 Jun - 20:06:16 10° NNW 20:07:43 12° N 20:09:11 10° NNE daylight
02 Jun - 21:42:38 10° NNW 21:45:10 20° NNE 21:47:41 10° ENE visible
02 Jun - 23:18:41 10° NW 23:21:57 77° SW 23:25:12 10° SE visible
03 Jun - 15:58:16 10° SSW 16:01:19 36° SE 16:04:22 10° ENE daylight
03 Jun - 17:34:54 10° W 17:37:50 29° NNW 17:40:46 10° NE daylight
03 Jun - 19:13:30 10° NW 19:15:07 13° N 19:16:44 10° NNE daylight
03 Jun - 20:50:32 10° NNW 20:52:38 16° NNE 20:54:44 10° NE visible
03 Jun - 22:26:26 10° NW 22:29:39 56° NNE 22:32:52 10° ESE visible
04 Jun - 00:03:45 10° W 00:05:49 16° SW 00:07:53 10° S visible
04 Jun - 15:06:46 10° S 15:09:11 19° SE 15:11:35 10° E daylight
04 Jun - 16:42:15 10° WSW 16:45:25 47° NNW 16:48:37 10° NE daylight
04 Jun - 18:20:32 10° NW 18:22:31 15° NNW 18:24:30 10° NNE daylight
04 Jun - 19:58:20 10° NNW 20:00:02 13° N 20:01:45 10° NE daylight
04 Jun - 21:34:16 10° NW 21:37:16 33° NNE 21:40:16 10° E visible
04 Jun - 23:10:48 10° WNW 23:13:42 30° SW 23:16:36 10° SSE visible
05 Jun - 15:49:48 10° SW 15:53:05 88° NW 15:56:22 10° NE daylight
05 Jun - 17:27:32 10° WNW 17:29:56 19° NNW 17:32:22 10° NNE daylight
05 Jun - 19:05:56 10° NNW 19:07:24 12° N 19:08:53 10° NNE daylight
05 Jun - 20:42:08 10° NNW 20:44:48 22° NNE 20:47:28 10° ENE daylight
05 Jun - 22:18:16 10° WNW 22:21:30 60° SW 22:24:43 10° SE visible
